Time,TemperatureF,DewpointF,PressureIn,WindDirection,WindDirectionDegrees,WindSpeedMPH,WindSpeedGustMPH,Humidity,HourlyPrecipIn,Conditions,Clouds,dailyrainin,SoftwareType,DateUTC
2013-04-01 00:03:00,44.0,43.0,29.71,SSW,200,0.0,7.0,97,0.00,,,-99.99,,2013-04-01 04:03:00,
2013-04-01 00:14:00,44.0,43.0,29.71,SSW,200,0.0,7.0,97,0.00,,,-99.99,,2013-04-01 04:14:00,
2013-04-01 00:23:00,44.0,43.0,29.71,SW,228,2.0,10.0,97,0.00,,,-99.99,,2013-04-01 04:23:00,
2013-04-01 00:33:00,44.0,43.0,29.71,SSW,198,2.0,10.0,97,0.00,,,-99.99,,2013-04-01 04:33:00,
2013-04-01 00:43:00,44.0,43.0,29.71,SSW,198,2.0,10.0,97,0.00,,,-99.99,,2013-04-01 04:43:00,
2013-04-01 00:53:00,44.0,43.0,29.71,SSW,197,0.0,8.0,97,0.00,,,-99.99,,2013-04-01 04:53:00,
2013-04-01 01:03:00,44.0,43.0,29.71,South,186,0.0,8.0,97,0.00,,,-99.99,,2013-04-01 05:03:00,
2013-04-01 01:13:00,44.0,43.0,29.71,South,186,0.0,8.0,97,0.00,,,-99.99,,2013-04-01 05:13:00,
2013-04-01 01:22:00,44.0,43.0,29.71,WSW,237,0.0,7.0,98,0.00,,,-99.99,,2013-04-01 05:22:00,
2013-04-01 01:32:00,43.0,42.0,29.71,SSW,194,0.0,8.0,98,0.00,,,-99.99,,2013-04-01 05:32:00,
2013-04-01 01:43:00,43.0,42.0,29.71,SSW,194,0.0,8.0,98,0.00,,,-99.99,,2013-04-01 05:43:00,
2013-04-01 01:53:00,43.0,42.0,29.71,SW,221,1.0,12.0,98,0.00,,,-99.99,,2013-04-01 05:53:00,
2013-04-01 02:02:00,43.0,42.0,29.71,SSW,202,2.0,10.0,98,0.00,,,-99.99,,2013-04-01 06:02:00,
2013-04-01 02:12:00,43.0,42.0,29.71,SSW,202,2.0,10.0,98,0.00,,,-99.99,,2013-04-01 06:12:00,
2013-04-01 02:23:00,43.0,42.0,29.71,South,171,0.0,5.0,98,0.00,,,-99.99,,2013-04-01 06:23:00,
2013-04-01 02:33:00,43.0,42.0,29.71,SSE,150,0.0,2.0,98,0.00,,,-99.99,,2013-04-01 06:33:00,
2013-04-01 02:43:00,43.0,42.0,29.71,SSE,150,0.0,2.0,98,0.00,,,-99.99,,2013-04-01 06:43:00,
2013-04-01 02:53:00,43.0,42.0,29.71,South,180,0.0,7.0,98,0.00,,,-99.99,,2013-04-01 06:53:00,
2013-04-01 03:03:00,43.0,42.0,29.70,SSW,194,0.0,9.0,98,0.00,,,-99.99,,2013-04-01 07:03:00,
2013-04-01 03:13:00,43.0,42.0,29.70,SSW,194,0.0,9.0,98,0.00,,,-99.99,,2013-04-01 07:13:00,
2013-04-01 03:22:00,43.0,42.0,29.70,SSW,201,1.0,10.0,98,0.00,,,-99.99,,2013-04-01 07:22:00,
2013-04-01 03:32:00,43.0,42.0,29.70,SE,137,0.0,0.0,98,0.00,,,-99.99,,2013-04-01 07:32:00,
2013-04-01 03:42:00,43.0,42.0,29.70,SE,137,0.0,0.0,98,0.00,,,-99.99,,2013-04-01 07:42:00,
2013-04-01 03:53:00,43.0,42.0,29.70,SE,145,3.0,15.0,98,0.00,,,-99.99,,2013-04-01 07:53:00,
2013-04-01 04:03:00,43.0,42.0,29.70,SSE,166,4.0,13.0,97,0.00,,,-99.99,,2013-04-01 08:03:00,
2013-04-01 04:12:00,43.0,42.0,29.70,SSE,166,4.0,13.0,97,0.00,,,-99.99,,2013-04-01 08:12:00,
2013-04-01 04:22:00,43.0,42.0,29.70,ESE,123,2.0,11.0,98,0.00,,,-99.99,,2013-04-01 08:22:00,
2013-04-01 04:32:00,43.0,43.0,29.70,South,172,2.0,11.0,99,0.02,,,-99.99,,2013-04-01 08:32:00,
2013-04-01 04:43:00,43.0,43.0,29.70,South,172,2.0,11.0,99,0.02,,,-99.99,,2013-04-01 08:43:00,
2013-04-01 04:53:00,43.0,43.0,29.68,South,172,1.0,8.0,99,0.02,,,-99.99,,2013-04-01 08:53:00,
2013-04-01 05:02:00,43.0,43.0,29.68,SSW,201,1.0,8.0,99,0.02,,,-99.99,,2013-04-01 09:02:00,
2013-04-01 05:12:00,43.0,43.0,29.68,SSW,201,1.0,8.0,99,0.02,,,-99.99,,2013-04-01 09:12:00,
2013-04-01 05:23:00,43.0,43.0,29.68,South,172,0.0,6.0,99,0.02,,,-99.99,,2013-04-01 09:23:00,
2013-04-01 05:33:00,43.0,43.0,29.68,SSW,206,1.0,9.0,99,0.00,,,-99.99,,2013-04-01 09:33:00,
2013-04-01 05:42:00,43.0,43.0,29.68,SSW,206,1.0,9.0,99,0.00,,,-99.99,,2013-04-01 09:42:00,
2013-04-01 05:53:00,43.0,43.0,29.68,SE,138,2.0,10.0,99,0.00,,,-99.99,,2013-04-01 09:53:00,
2013-04-01 06:03:00,43.0,43.0,29.68,SSW,195,3.0,13.0,99,0.00,,,-99.99,,2013-04-01 10:03:00,
2013-04-01 06:13:00,43.0,43.0,29.68,SSW,195,3.0,13.0,99,0.00,,,-99.99,,2013-04-01 10:13:00,
2013-04-01 06:23:00,43.0,43.0,29.68,South,190,3.0,10.0,99,0.00,,,-99.99,,2013-04-01 10:23:00,
2013-04-01 06:33:00,44.0,44.0,29.70,SSW,197,5.0,11.0,99,0.00,,,-99.99,,2013-04-01 10:33:00,
2013-04-01 06:42:00,44.0,44.0,29.70,SSW,197,5.0,11.0,99,0.00,,,-99.99,,2013-04-01 10:42:00,
2013-04-01 06:53:00,44.0,43.0,29.70,SW,221,5.0,16.0,98,0.00,,,-99.99,,2013-04-01 10:53:00,
2013-04-01 07:03:00,44.0,43.0,29.70,SSW,207,6.0,15.0,98,0.00,,,-99.99,,2013-04-01 11:03:00,
2013-04-01 07:13:00,44.0,43.0,29.70,SSW,207,6.0,15.0,98,0.00,,,-99.99,,2013-04-01 11:13:00,
2013-04-01 07:23:00,44.0,43.0,29.70,SW,215,5.0,14.0,97,0.00,,,-99.99,,2013-04-01 11:23:00,
2013-04-01 07:33:00,44.0,43.0,29.70,SSW,194,6.0,14.0,96,0.00,,,-99.99,,2013-04-01 11:33:00,
2013-04-01 07:42:00,44.0,43.0,29.70,SSW,194,6.0,14.0,96,0.00,,,-99.99,,2013-04-01 11:42:00,
2013-04-01 07:53:00,44.0,43.0,29.71,SW,216,6.0,15.0,95,0.00,,,-99.99,,2013-04-01 11:53:00,
2013-04-01 08:03:00,44.0,42.0,29.72,SSW,206,6.0,19.0,94,0.00,,,-99.99,,2013-04-01 12:03:00,
2013-04-01 08:12:00,44.0,42.0,29.72,SSW,206,6.0,19.0,94,0.00,,,-99.99,,2013-04-01 12:12:00,
2013-04-01 08:23:00,45.0,43.0,29.73,SSW,213,6.0,14.0,93,0.00,,,-99.99,,2013-04-01 12:23:00,
2013-04-01 08:32:00,45.0,43.0,29.73,SW,218,7.0,19.0,92,0.00,,,-99.99,,2013-04-01 12:32:00,
2013-04-01 08:42:00,45.0,43.0,29.73,SW,218,7.0,19.0,92,0.00,,,-99.99,,2013-04-01 12:42:00,
2013-04-01 08:53:00,44.0,42.0,29.73,SSW,197,6.0,14.0,91,0.00,,,-99.99,,2013-04-01 12:53:00,
2013-04-01 09:03:00,45.0,43.0,29.74,SSW,201,6.0,19.0,91,0.00,,,-99.99,,2013-04-01 13:03:00,
2013-04-01 09:12:00,45.0,43.0,29.74,SSW,201,6.0,19.0,91,0.00,,,-99.99,,2013-04-01 13:12:00,
2013-04-01 09:22:00,43.0,41.0,29.75,SSW,202,8.0,20.0,92,0.00,,,-99.99,,2013-04-01 13:22:00,
2013-04-01 09:32:00,41.0,39.0,29.75,SSW,212,7.0,20.0,93,0.00,,,-99.99,,2013-04-01 13:32:00,
2013-04-01 09:42:00,41.0,39.0,29.75,SSW,212,7.0,20.0,93,0.00,,,-99.99,,2013-04-01 13:42:00,
2013-04-01 09:53:00,41.0,39.0,29.76,SW,220,7.0,20.0,92,0.00,,,-99.99,,2013-04-01 13:53:00,
2013-04-01 10:04:00,43.0,40.0,29.76,SSW,204,8.0,17.0,90,0.00,,,-99.99,,2013-04-01 14:04:00,
2013-04-01 10:12:00,43.0,40.0,29.76,SSW,204,8.0,17.0,90,0.00,,,-99.99,,2013-04-01 14:12:00,
2013-04-01 10:22:00,43.0,39.0,29.76,South,191,8.0,19.0,87,0.00,,,-99.99,,2013-04-01 14:22:00,
2013-04-01 10:33:00,42.0,38.0,29.76,SSE,159,6.0,19.0,84,0.00,,,-99.99,,2013-04-01 14:33:00,
2013-04-01 10:42:00,42.0,38.0,29.76,SSE,159,6.0,19.0,84,0.00,,,-99.99,,2013-04-01 14:42:00,
2013-04-01 10:53:00,42.0,38.0,29.78,SSE,155,6.0,22.0,84,0.00,,,-99.99,,2013-04-01 14:53:00,
2013-04-01 11:03:00,42.0,38.0,29.78,SSE,155,6.0,22.0,84,0.00,,,-99.99,,2013-04-01 15:03:00,
2013-04-01 11:13:00,42.0,38.0,29.78,SSE,155,6.0,22.0,84,0.00,,,-99.99,,2013-04-01 15:13:00,
2013-04-01 11:22:00,40.0,37.0,29.79,SSW,209,8.0,19.0,89,0.00,,,-99.99,,2013-04-01 15:22:00,
2013-04-01 11:34:00,40.0,38.0,29.80,South,172,6.0,14.0,91,0.00,,,-99.99,,2013-04-01 15:34:00,
2013-04-01 11:44:00,40.0,38.0,29.80,South,172,6.0,14.0,91,0.00,,,-99.99,,2013-04-01 15:44:00,
2013-04-01 11:54:00,40.0,38.0,29.79,SSW,202,6.0,14.0,92,0.00,,,-99.99,,2013-04-01 15:54:00,
2013-04-01 12:03:00,41.0,38.0,29.80,SSW,205,7.0,17.0,88,0.00,,,-99.99,,2013-04-01 16:03:00,
2013-04-01 12:13:00,41.0,38.0,29.80,SSW,205,7.0,17.0,88,0.00,,,-99.99,,2013-04-01 16:13:00,
2013-04-01 12:23:00,41.0,37.0,29.80,South,185,9.0,16.0,86,0.00,,,-99.99,,2013-04-01 16:23:00,
2013-04-01 12:33:00,40.0,36.0,29.81,South,181,7.0,12.0,86,0.00,,,-99.99,,2013-04-01 16:33:00,
2013-04-01 12:43:00,40.0,36.0,29.81,South,181,7.0,12.0,86,0.00,,,-99.99,,2013-04-01 16:43:00,
2013-04-01 12:52:00,40.0,37.0,29.81,SW,220,8.0,18.0,88,0.00,,,-99.99,,2013-04-01 16:52:00,
2013-04-01 13:03:00,41.0,38.0,29.81,SSW,196,6.0,12.0,88,0.00,,,-99.99,,2013-04-01 17:03:00,
2013-04-01 13:13:00,41.0,38.0,29.81,SSW,196,6.0,12.0,88,0.00,,,-99.99,,2013-04-01 17:13:00,
2013-04-01 13:23:00,41.0,36.0,29.81,SW,221,4.0,15.0,83,0.00,,,-99.99,,2013-04-01 17:23:00,
2013-04-01 13:32:00,41.0,36.0,29.81,SW,221,4.0,15.0,83,0.00,,,-99.99,,2013-04-01 17:32:00,
2013-04-01 13:42:00,41.0,36.0,29.81,SW,221,4.0,15.0,83,0.00,,,-99.99,,2013-04-01 17:42:00,
2013-04-01 13:53:00,37.0,35.0,29.83,SE,135,7.0,17.0,91,0.00,,,-99.99,,2013-04-01 17:53:00,
2013-04-01 14:03:00,36.0,34.0,29.83,SE,134,6.0,16.0,91,0.00,,,-99.99,,2013-04-01 18:03:00,
2013-04-01 14:12:00,36.0,34.0,29.83,SE,134,6.0,16.0,91,0.00,,,-99.99,,2013-04-01 18:12:00,
2013-04-01 14:22:00,35.0,33.0,29.85,South,173,5.0,10.0,93,0.00,,,-99.99,,2013-04-01 18:22:00,
2013-04-01 14:32:00,35.0,33.0,29.84,SSE,153,7.0,16.0,92,0.00,,,-99.99,,2013-04-01 18:32:00,
2013-04-01 14:43:00,35.0,33.0,29.84,SSE,153,7.0,16.0,92,0.00,,,-99.99,,2013-04-01 18:43:00,
2013-04-01 14:53:00,38.0,36.0,29.85,SSE,147,5.0,12.0,92,0.00,,,-99.99,,2013-04-01 18:53:00,
2013-04-01 15:03:00,37.0,35.0,29.85,South,171,6.0,12.0,91,0.00,,,-99.99,,2013-04-01 19:03:00,
2013-04-01 15:13:00,37.0,35.0,29.85,South,171,6.0,12.0,91,0.00,,,-99.99,,2013-04-01 19:13:00,
2013-04-01 15:23:00,36.0,34.0,29.85,SSW,203,5.0,10.0,91,0.00,,,-99.99,,2013-04-01 19:23:00,
2013-04-01 15:32:00,37.0,35.0,29.84,SSW,206,4.0,12.0,93,0.01,,,-99.99,,2013-04-01 19:32:00,
2013-04-01 15:42:00,37.0,35.0,29.84,SSW,206,4.0,12.0,93,0.01,,,-99.99,,2013-04-01 19:42:00,
2013-04-01 15:53:00,40.0,38.0,29.85,SSW,204,6.0,17.0,92,0.01,,,-99.99,,2013-04-01 19:53:00,
2013-04-01 16:02:00,39.0,36.0,29.85,SSW,203,8.0,19.0,89,0.01,,,-99.99,,2013-04-01 20:02:00,
2013-04-01 16:13:00,39.0,36.0,29.85,SSW,203,8.0,19.0,89,0.01,,,-99.99,,2013-04-01 20:13:00,
2013-04-01 16:23:00,37.0,35.0,29.85,South,176,5.0,13.0,91,0.01,,,-99.99,,2013-04-01 20:23:00,
2013-04-01 16:33:00,39.0,36.0,29.85,SSW,208,7.0,16.0,89,0.01,,,-99.99,,2013-04-01 20:33:00,
2013-04-01 16:43:00,39.0,36.0,29.85,SSW,208,7.0,16.0,89,0.01,,,-99.99,,2013-04-01 20:43:00,
2013-04-01 16:52:00,39.0,36.0,29.85,SSW,201,5.0,12.0,89,0.01,,,-99.99,,2013-04-01 20:52:00,
2013-04-01 17:02:00,40.0,36.0,29.85,SSW,212,6.0,13.0,87,0.01,,,-99.99,,2013-04-01 21:02:00,
2013-04-01 17:12:00,40.0,36.0,29.85,SSW,212,6.0,13.0,87,0.01,,,-99.99,,2013-04-01 21:12:00,
2013-04-01 17:23:00,41.0,35.0,29.85,SSW,212,5.0,13.0,78,0.01,,,-99.99,,2013-04-01 21:23:00,
2013-04-01 17:32:00,40.0,33.0,29.85,SSW,200,2.0,12.0,77,0.00,,,-99.99,,2013-04-01 21:32:00,
2013-04-01 17:43:00,40.0,33.0,29.85,SSW,200,2.0,12.0,77,0.00,,,-99.99,,2013-04-01 21:43:00,
2013-04-01 17:53:00,40.0,32.0,29.85,South,191,6.0,20.0,73,0.00,,,-99.99,,2013-04-01 21:53:00,
2013-04-01 18:03:00,39.0,30.0,29.85,South,190,9.0,20.0,70,0.00,,,-99.99,,2013-04-01 22:03:00,
2013-04-01 18:12:00,39.0,30.0,29.85,South,190,9.0,20.0,70,0.00,,,-99.99,,2013-04-01 22:12:00,
2013-04-01 18:23:00,39.0,30.0,29.86,South,187,6.0,18.0,69,0.00,,,-99.99,,2013-04-01 22:23:00,
2013-04-01 18:33:00,40.0,30.0,29.86,South,185,8.0,21.0,67,0.00,,,-99.99,,2013-04-01 22:33:00,
2013-04-01 18:43:00,40.0,30.0,29.86,South,185,8.0,21.0,67,0.00,,,-99.99,,2013-04-01 22:43:00,
2013-04-01 18:52:00,40.0,30.0,29.87,SSW,206,3.0,10.0,67,0.00,,,-99.99,,2013-04-01 22:52:00,
2013-04-01 19:02:00,39.0,29.0,29.87,South,178,1.0,8.0,66,0.00,,,-99.99,,2013-04-01 23:02:00,
2013-04-01 19:12:00,39.0,29.0,29.87,South,178,1.0,8.0,66,0.00,,,-99.99,,2013-04-01 23:12:00,
2013-04-01 19:23:00,38.0,28.0,29.87,South,191,6.0,19.0,66,0.00,,,-99.99,,2013-04-01 23:23:00,
2013-04-01 19:32:00,37.0,27.0,29.87,SW,220,3.0,17.0,67,0.00,,,-99.99,,2013-04-01 23:32:00,
2013-04-01 19:43:00,37.0,27.0,29.87,SW,220,3.0,17.0,67,0.00,,,-99.99,,2013-04-01 23:43:00,
2013-04-01 19:53:00,37.0,27.0,29.87,SW,220,3.0,17.0,67,0.00,,,-99.99,,2013-04-01 23:53:00,
2013-04-01 20:03:00,36.0,26.0,29.88,ESE,105,4.0,12.0,67,0.00,,,-99.99,,2013-04-02 00:03:00,
2013-04-01 20:12:00,36.0,26.0,29.88,ESE,105,4.0,12.0,67,0.00,,,-99.99,,2013-04-02 00:12:00,
2013-04-01 20:22:00,36.0,26.0,29.89,SSE,168,5.0,14.0,67,0.00,,,-99.99,,2013-04-02 00:22:00,
2013-04-01 20:33:00,35.0,25.0,29.91,ESE,122,4.0,17.0,67,0.00,,,-99.99,,2013-04-02 00:33:00,
2013-04-01 20:42:00,35.0,25.0,29.91,ESE,122,4.0,17.0,67,0.00,,,-99.99,,2013-04-02 00:42:00,
2013-04-01 20:53:00,35.0,26.0,29.91,ESE,110,2.0,9.0,68,0.00,,,-99.99,,2013-04-02 00:53:00,
2013-04-01 21:02:00,34.0,25.0,29.91,South,174,6.0,16.0,68,0.00,,,-99.99,,2013-04-02 01:02:00,
2013-04-01 21:12:00,34.0,25.0,29.91,South,174,6.0,16.0,68,0.00,,,-99.99,,2013-04-02 01:12:00,
2013-04-01 21:22:00,34.0,25.0,29.91,East,101,3.0,12.0,68,0.00,,,-99.99,,2013-04-02 01:22:00,
2013-04-01 21:32:00,34.0,25.0,29.92,WSW,241,1.0,9.0,69,0.00,,,-99.99,,2013-04-02 01:32:00,
2013-04-01 21:42:00,34.0,25.0,29.92,WSW,241,1.0,9.0,69,0.00,,,-99.99,,2013-04-02 01:42:00,
2013-04-01 21:53:00,34.0,25.0,29.92,SSW,213,0.0,8.0,69,0.00,,,-99.99,,2013-04-02 01:53:00,
2013-04-01 22:03:00,34.0,25.0,29.93,South,177,1.0,10.0,70,0.00,,,-99.99,,2013-04-02 02:03:00,
2013-04-01 22:12:00,34.0,25.0,29.93,South,177,1.0,10.0,70,0.00,,,-99.99,,2013-04-02 02:12:00,
2013-04-01 22:22:00,33.0,24.0,29.93,SSW,196,1.0,9.0,70,0.00,,,-99.99,,2013-04-02 02:22:00,
2013-04-01 22:32:00,34.0,25.0,29.93,SW,218,0.0,8.0,70,0.00,,,-99.99,,2013-04-02 02:32:00,
2013-04-01 22:42:00,34.0,25.0,29.93,SW,218,0.0,8.0,70,0.00,,,-99.99,,2013-04-02 02:42:00,
2013-04-01 22:53:00,33.0,25.0,29.93,SW,223,2.0,12.0,71,0.00,,,-99.99,,2013-04-02 02:53:00,
2013-04-01 23:02:00,33.0,25.0,29.93,SSW,203,5.0,14.0,71,0.00,,,-99.99,,2013-04-02 03:02:00,
2013-04-01 23:13:00,33.0,25.0,29.93,SSW,203,5.0,14.0,71,0.00,,,-99.99,,2013-04-02 03:13:00,
2013-04-01 23:22:00,33.0,25.0,29.93,SSW,206,5.0,15.0,71,0.00,,,-99.99,,2013-04-02 03:22:00,
2013-04-01 23:33:00,33.0,24.0,29.93,South,187,6.0,15.0,70,0.00,,,-99.99,,2013-04-02 03:33:00,
2013-04-01 23:43:00,33.0,24.0,29.93,South,187,6.0,15.0,70,0.00,,,-99.99,,2013-04-02 03:43:00,
2013-04-01 23:53:00,33.0,25.0,29.93,SSW,211,3.0,16.0,72,0.00,,,-99.99,,2013-04-02 03:53:00,